{"data":{"norad_id":48022,"epoch":"2026-09-20T04:44:21.073632Z","epoch_age_seconds":55276,"freshness":"FRESH","line1":"1 48022U 21024AX  26263.19746613  .00133931  00000+0  60301-3 0  9993","line2":"2 48022  53.1132 110.5187 0003489 176.8560 183.2485 15.83182931304923","mean_motion":15.83182931,"eccentricity":0.0003489,"inclination_deg":53.1132,"raan_deg":110.5187,"arg_perigee_deg":176.856,"mean_anomaly_deg":183.2485,"bstar":0.00060301,"rev_number":30492,"period_min":90.956008418461,"perigee_km":319.10856944932,"apogee_km":323.78353850439,"semimajor_km":6699.5830539769,"source":"CELESTRAK","updated_at":"2026-09-20T09:00:38.760383Z"}}